Location: Remedello Sotto
(45.2500°N, 10.3667°E)
Time: 07:26:20
(UTC+00:00)

CZ-4B DEB - Pass Details

Date: 13 August 2024
Orbit: 835 x 857 km, 99.0° (Epoch: 19 September)

Event Time Altitude Azimuth Distance (km) Brightness Sun altitude
Rises 19:00:36 0° 177° (S) 3,410 7.1 -6.0°
Reaches altitude 10° 19:03:01 10° 182° (S) 2,481 6.4 -6.4°
Maximum altitude 19:08:24 53° 259° (W) 1,042 5.1 -7.3°
Drops below altitude 10° 19:13:50 10° 337° (NNW) 2,503 7.6 -8.1°
Sets 19:16:17 0° 342° (NNW) 3,444 8.2 -8.5°
